Weather History for Augusta Bush, GA

Change the Weather History Date:

Thursday, February 20, 2014

  Actual Average Record
Temperature  
Mean Temperature 64 °F 50 °F  
Max Temperature 82 °F 63 °F 82 °F (1991)
Min Temperature 46 °F 37 °F 19 °F (1958)
Degree Days  
Heating Degree Days 1 15  
Month to date heating degree days 339 335  
Since 1 July heating degree days 2040 1920  
Cooling Degree Days 0 0  
Month to date cooling degree days 2 0  
Year to date cooling degree days 2 1  
Growing Degree Days 14 (Base 50)    
Moisture  
Dew Point 52 °F    
Average Humidity 69    
Maximum Humidity 100    
Minimum Humidity 37    
Precipitation  
Precipitation 0.00 in 0.15 in 1.25 in (1953)
Month to date precipitation 3.10 2.75  
Year to date precipitation 5.58 6.66  
Sea Level Pressure  
Sea Level Pressure 30.08 in    
Wind  
Wind Speed 8 mph (South)    
Max Wind Speed 23 mph    
Max Gust Speed 28 mph    
Visibility 7 miles    
Events Fog    
T = Trace of Precipitation, MM = Missing Value Source: NWS Daily Summary

Daily Weather History Graph

Daily Weather History Graph

Search for Another Location

Airport:

Trip Planner

Search our weather history database for the weather conditions in past years. The results will help you decide how hot, cold, wet, or windy it might be!

Date:

Astronomy

Feb. 20, 2014 Rise Set
Actual Time 7:06 AM EST 6:17 PM EST
Civil Twilight 6:41 AM EST 6:42 PM EST
Nautical Twilight 6:12 AM EST 7:11 PM EST
Astronomical Twilight 5:43 AM EST 7:40 PM EST
Moon 11:50 PM EST (2/20) 10:06 AM EST (2/20)
Length of Visible Light 12h 00m
Length of Day
11h 10m
Waning Gibbous, 71% of the Moon is Illuminated
Feb 20
Waning Gibbous
Feb 22
Last Quarter
Mar 1
New
Mar 8
First Quarter
Mar 16
Full

Hourly Weather History & Observations

Time (EST) Temp. Heat Index Dew Point Humidity Pressure Visibility Wind Dir Wind Speed Gust Speed Precip Events Conditions
12:53 AM 53.1 °F - 51.1 °F 93% 30.08 in 10.0 mi South 3.5 mph - N/A   Clear
1:53 AM 53.1 °F - 52.0 °F 96% 30.08 in 9.0 mi Calm Calm - N/A   Clear
2:53 AM 51.1 °F - 50.0 °F 96% 30.09 in 10.0 mi Calm Calm - N/A   Clear
3:53 AM 51.1 °F - 50.0 °F 96% 30.09 in 9.0 mi Calm Calm - N/A   Clear
4:53 AM 51.1 °F - 48.9 °F 92% 30.09 in 7.0 mi Calm Calm - N/A   Clear
5:36 AM 50.0 °F - 48.9 °F 96% 30.10 in 1.8 mi Calm Calm - N/A   Clear
5:40 AM 48.9 °F - 48.0 °F 97% 30.10 in 0.8 mi Calm Calm - N/A   Mist
5:47 AM 50.0 °F - 48.2 °F 94% 30.11 in 1.2 mi Calm Calm - N/A   Partly Cloudy
5:49 AM 50.0 °F - 48.2 °F 94% 30.11 in 3.0 mi Calm Calm - N/A   Clear
5:53 AM 50.0 °F - 48.9 °F 96% 30.11 in 5.0 mi Calm Calm - N/A   Clear
6:17 AM 46.9 °F - 46.0 °F 97% 30.11 in 0.8 mi Calm Calm - N/A   Mist
6:20 AM 46.0 °F - 46.0 °F 100% 30.12 in 0.2 mi Calm Calm - N/A Fog Fog
6:40 AM 46.9 °F - 46.9 °F 100% 30.12 in 1.0 mi Calm Calm - N/A   Mist
6:42 AM 46.9 °F - 46.0 °F 97% 30.12 in 3.0 mi Calm Calm - N/A   Mostly Cloudy
6:53 AM 46.0 °F - 46.0 °F 100% 30.12 in 1.2 mi Calm Calm - N/A   Partly Cloudy
6:55 AM 46.0 °F - 46.0 °F 100% 30.12 in 0.8 mi Calm Calm - N/A   Mist
7:02 AM 46.9 °F - 46.9 °F 100% 30.13 in 2.0 mi Calm Calm - N/A   Scattered Clouds
7:53 AM 48.9 °F - 48.9 °F 100% 30.13 in 6.0 mi SE 4.6 mph - N/A   Clear
8:53 AM 59.0 °F - 54.0 °F 83% 30.14 in 10.0 mi SSE 5.8 mph - N/A   Clear
9:53 AM 68.0 °F - 57.0 °F 68% 30.14 in 10.0 mi South 6.9 mph - N/A   Clear
10:53 AM 71.1 °F - 57.9 °F 63% 30.13 in 10.0 mi SSW 12.7 mph - N/A   Clear
11:53 AM 75.0 °F - 57.0 °F 53% 30.12 in 10.0 mi SSW 16.1 mph 25.3 mph N/A   Clear
12:53 PM 79.0 °F - 57.9 °F 48% 30.09 in 10.0 mi SW 17.3 mph 21.9 mph N/A   Clear
1:53 PM 79.0 °F - 57.0 °F 47% 30.06 in 10.0 mi SW 12.7 mph - N/A   Clear
2:53 PM 81.0 °F 80.7 °F 55.0 °F 41% 30.03 in 10.0 mi SSW 13.8 mph - N/A   Clear
3:53 PM 82.0 °F 81.3 °F 54.0 °F 38% 30.02 in 10.0 mi South 17.3 mph 24.2 mph N/A   Partly Cloudy
4:53 PM 80.1 °F 80.0 °F 54.0 °F 40% 30.01 in 10.0 mi South 13.8 mph - N/A   Partly Cloudy
5:53 PM 77.0 °F - 54.0 °F 45% 30.02 in 10.0 mi South 9.2 mph - N/A   Clear
6:53 PM 72.0 °F - 53.1 °F 51% 30.02 in 10.0 mi South 5.8 mph - N/A   Clear
7:53 PM 68.0 °F - 54.0 °F 61% 30.01 in 10.0 mi South 8.1 mph - N/A   Clear
8:53 PM 70.0 °F - 57.0 °F 63% 30.02 in 10.0 mi SSE 10.4 mph - N/A   Clear
9:53 PM 68.0 °F - 59.0 °F 73% 30.02 in 10.0 mi South 13.8 mph - N/A   Clear
10:53 PM 66.0 °F - 59.0 °F 78% 30.01 in 10.0 mi South 11.5 mph - N/A   Clear
11:53 PM 64.9 °F - 59.0 °F 81% 29.99 in 10.0 mi South 11.5 mph - N/A   Clear